Location: Sternwarte ZA, Rosenfeld-Brittheim
(48.2889°N, 8.6789°E)
Time: 07:28:18
(UTC+02:00)

ISS - Pass Details

Date: 19 May 2021
Orbit: 417 x 422 km, 51.6° (Epoch: 18 June)

Event Time Altitude Azimuth Distance (km) Brightness Sun altitude
Rises 00:28:44 0° 283° (WNW) 2,369 0.4 -20.9°
Reaches altitude 10° 00:30:53 10° 290° (WNW) 1,505 -0.5 -21.0°
Maximum altitude 00:34:09 47° 5° (N) 572 -2.7 -21.1°
Enters shadow 00:36:02 22° 71° (ENE) 985 -1.8 -21.2°
